Location: Fontanella
(45.1833°N, 10.3167°E)
Time: 17:56:40
(UTC+00:00)

Daily predictions for brighter satellites

Satellite Brightness Start Highest point End
(mag) Time Altitude Azimuth Time Altitude Azimuth Time Altitude Azimuth
H-2A ROCKET BODY 4.2 19:31:26 10° SSW 19:35:06 19° SSE 19:43:09 10° ESE
Cosmos 1745 Rocket 4.2 19:40:34 10° S 19:46:35 57° E 19:52:43 10° NNE
Resurs 1-3 4.1 19:45:45 10° S 19:50:05 64° WSW 19:54:28 10° NNW
Cosmos 1125 Rocket 3.7 19:46:11 10° NNW 19:51:26 74° WSW 19:56:41 10° SSE
Meteor 1-21 Rocket 4.4 19:49:47 10° S 19:55:38 70° E 20:01:33 10° NNE
SPOT 1/Viking Rocket 4.3 19:51:41 10° SE 19:56:27 40° ENE 20:01:14 10° N
USA 267 4.5 19:50:39 10° E 19:56:33 37° NNE 20:02:29 10° NW
VEP-3 4.5 19:57:36 10° SSW 20:00:13 13° SSE 20:03:22 10° SE
Cosmos 2322 Rocket 2.6 19:55:35 10° SW 20:01:09 68° WNW 20:06:46 10° NNE
Alouette 2 Rocket 4.3 19:57:54 10° N 20:01:31 38° ENE 20:06:10 10° SE
SL-08 ROCKET BODY 4.4 19:56:08 10° S 20:02:02 75° E 20:08:06 10° NNE
SPOT 3 Rocket 4.3 19:57:23 10° S 20:02:27 52° W 20:07:34 10° NNW
NOSS 7 (D) 3.7 20:00:30 10° SW 20:03:22 87° ESE 20:06:04 10° NE
Cosmos 2237 4.2 19:58:08 10° SSW 20:03:51 75° ESE 20:09:35 10° NNE
Cosmos 1328 4.3 20:02:30 10° SSE 20:06:15 42° E 20:10:01 10° NNE
SAR-Lupe-2 4.5 20:07:26 10° NE 20:10:40 31° E 20:13:38 11° SSE
Cosmos 1455 2.2 20:08:50 10° N 20:12:42 89° E 20:16:33 10° S
Cosmos 1825 Rocket 3.7 20:11:13 10° S 20:15:33 57° E 20:19:57 10° NNE
ATLAS CENTAUR R/B 2.8 20:16:08 10° NNW 20:19:10 23° NE 20:22:10 10° E
Cosmos 1703 3.2 20:16:18 10° S 20:20:08 70° E 20:24:01 10° NNE
COSMOS 2428 3.5 20:16:12 10° SSE 20:21:08 32° ESE 20:26:05 10° NE
Cosmos 1812 Rocket 4.3 20:18:41 10° NNW 20:22:55 52° W 20:27:06 10° S
SL-24 R/B - RUBIN 2 4.5 20:17:59 10° SSW 20:23:52 62° ESE 20:30:21 10° NE
Cosmos 1844 3.8 20:18:56 10° NNW 20:24:44 74° ENE 20:29:32 15° SSE
Cosmos 2322 3.8 20:19:19 10° S 20:24:55 57° ESE 20:30:31 10° NNE
Cosmos 783 Rocket 4.5 20:25:50 10° SSW 20:31:05 87° ESE 20:36:21 10° NNE
Cosmos 1709 Rocket 4.0 20:25:23 10° S 20:31:38 71° E 20:37:58 10° NNE
Cosmos 2263 Rocket 4.5 20:28:57 10° WNW 20:32:32 18° W 20:36:06 10° SW
NOSS 3-3 (A) 4.2 20:27:59 10° S 20:33:26 44° ESE 20:39:29 10° NE
NOSS 3-3 (C) 4.2 20:28:07 10° S 20:33:32 44° ESE 20:39:35 10° NE
Nadezhda 1 Rocket 4.5 20:27:15 10° NNW 20:33:35 63° W 20:39:51 10° S
Terra 2.6 20:31:40 16° SE 20:35:01 37° ENE 20:39:24 10° N
Cosmos 2237 Rocket 3.8 20:33:11 14° ESE 20:35:05 16° E 20:38:28 10° ENE
Atlas Centaur 2 3.7 20:31:08 10° SW 20:35:41 22° S 20:38:47 16° SE
CARTOSAT-1 3.8 20:32:57 17° SSE 20:36:06 56° ENE 20:40:20 10° N
Cosmos 2333 4.2 20:31:07 10° SSW 20:36:42 68° ESE 20:42:21 10° NNE
Cosmos 2219 Rocket 2.4 20:31:48 10° S 20:37:06 47° ESE 20:42:28 10° NE
Cosmos 2360 Rocket 2.7 20:33:27 10° SW 20:39:02 64° WNW 20:44:42 10° NNE
IGS 5A 3.7 20:35:34 12° S 20:39:18 67° WSW 20:43:27 10° NNW
Cosmos 1538 Rocket 4.4 20:35:01 11° S 20:39:58 45° ESE 20:45:03 10° NNE
IRIS 4.4 20:40:17 10° WSW 20:42:56 32° S 20:43:19 30° SSE
DELTA 2 R/B (1) 4.5 20:39:40 10° SSW 20:44:11 26° SSE 20:48:44 10° E
Cosmos 2333 Rocket 2.2 20:41:17 10° S 20:46:52 61° ESE 20:52:30 10° NNE
Resurs 01 Rocket 3.7 20:47:50 10° SW 20:51:19 23° W 20:54:49 10° NW
ATLAS 2AS CENTAUR R/B 4.1 20:44:55 10° NNW 20:51:53 35° NNE 20:58:20 10° E
Cosmos 1315 Rocket 3.2 20:47:59 10° N 20:52:00 51° ENE 20:54:13 24° SE
Cosmos 1818 4.4 20:49:15 10° SW 20:54:33 53° NW 20:59:54 10° NNE
Cosmos-2242 3.7 20:51:13 10° NNW 20:55:27 53° W 20:59:06 14° SSW
Cosmos 773 Rocket 4.1 20:51:37 10° SSW 20:56:55 86° WNW 21:02:15 10° NNE
Cosmos 2221 3.3 20:56:22 10° N 21:00:28 38° ENE 21:02:29 24° SE
ERS-1 Rocket 3.0 20:56:51 19° S 21:00:31 81° WSW 21:05:36 10° NNW
GEOS 3 Rocket 4.2 20:58:22 10° NNE 21:03:43 65° NW 21:09:02 10° SW
USA 215 3.2 21:00:25 10° NE 21:07:00 78° SE 21:13:33 10° SW
Cosmos 1892 3.9 21:07:02 24° ESE 21:07:46 25° E 21:10:56 10° NNE
Cosmos 2278 Rocket 2.8 21:04:11 10° NNW 21:09:39 46° ENE 21:13:09 21° ESE
ATLAS 5 CENTAUR R/B 3.0 21:07:26 10° WSW 21:11:23 39° NW 21:15:49 10° NNE
Meteor 1-11 4.4 21:05:48 10° SSW 21:11:24 73° WNW 21:17:07 10° N
Cosmos 1844 Rocket 3.7 21:09:12 10° NW 21:14:18 38° WSW 21:18:16 16° SSW
Cosmos 1400 Rocket 4.4 21:11:15 10° NNW 21:14:44 29° W 21:17:41 13° SSW
Gblst 52 Del rocket 4.4 21:09:42 10° WNW 21:15:25 77° NNE 21:20:33 16° ESE
SPOT 5 3.2 21:13:56 21° S 21:17:16 65° WSW 21:22:05 10° NNW
SL-16 R/B 4.0 21:18:56 13° ESE 21:19:29 13° E 21:22:03 10° ENE
Lacrosse 5 rocket 4.2 21:18:17 10° NW 21:20:49 15° N 21:23:17 10° NE
USA 81 4.4 21:19:52 15° SSW 21:24:17 64° W 21:29:33 10° N
Cosmos 2058 3.4 21:24:59 34° SE 21:26:10 43° E 21:30:07 10° NNE
Cosmos 2154 Rocket 4.4 21:23:04 26° SSE 21:26:10 46° E 21:32:02 10° NNE
BREEZE M DEB (TANK) 3.1 21:26:15 10° W 21:27:39 26° WSW 21:27:39 26° WSW
Cosmos 1408 3.8 21:29:06 26° E 21:29:14 26° E 21:32:16 10° NNE
Cosmos 2181 Rocket 4.4 21:23:30 10° NNW 21:29:44 60° W 21:34:14 19° SSW
Meteor 2-17 Rocket 4.5 21:27:25 26° SSE 21:30:54 64° E 21:36:53 10° NNE
In-Cosmos 22 Rocket 4.1 21:29:54 29° SSE 21:32:29 61° E 21:37:43 10° NNE
Cosmos 2074 Rocket 3.9 21:29:15 22° S 21:33:25 82° E 21:39:39 10° N
TSX-5 4.0 21:32:47 10° NNW 21:36:17 59° ENE 21:37:36 37° ESE
Cosmos 1076 Rocket 3.7 21:36:08 38° SE 21:37:21 52° E 21:41:31 10° NNE
Cosmos 1680 Rocket 3.8 21:35:42 32° SSE 21:37:45 49° ESE 21:42:53 10° NNE
USA 267 3.4 21:34:05 19° ESE 21:39:02 76° NE 21:45:37 10° NW
Cosmos 2084 3.7 21:42:26 10° NW 21:46:49 57° SW 21:48:05 40° S
Cosmos 1842 Rocket 3.9 21:43:00 10° NNW 21:47:17 57° W 21:49:02 32° SSW
Cosmos 2151 4.0 21:47:18 28° ESE 21:47:53 29° E 21:51:35 10° NNE
JB-3 4.3 21:44:41 10° N 21:48:33 73° WNW 21:49:57 37° SSW
MTI 4.4 21:49:28 10° N 21:52:28 49° WNW 21:53:10 39° WSW
Cosmos 923 Rocket 3.9 21:52:19 27° SSW 21:55:15 89° ESE 22:00:34 10° NNE
Cosmos 2327 Rocket 4.4 21:52:14 29° S 21:55:36 84° E 22:01:46 10° N
ATLAS CENTAUR R/B 1.9 21:54:46 10° NW 21:58:08 34° WSW 21:58:26 34° SW
Cosmos 1825 2.8 21:58:09 39° E 21:58:18 40° E 22:01:52 10° NNE
ALOS 2 3.9 21:58:03 25° E 21:59:28 30° ENE 22:03:19 10° N
Cosmos 1980 3.6 21:56:55 27° SSW 22:00:06 82° ESE 22:05:47 10° NNE
Cosmos 44 4.1 22:05:14 27° E 22:05:14 27° E 22:08:24 10° NE
COSMOS 2428 3.8 21:59:53 10° SW 22:05:14 43° WNW 22:10:39 10° NNE
Cosmos 1869 4.4 22:04:28 10° NNW 22:08:10 37° W 22:09:23 30° SW
Cosmos 1295 Rocket 4.4 22:06:31 35° S 22:09:19 77° E 22:15:26 10° N
GP-B 4.1 22:06:40 10° NNE 22:10:40 32° E 22:11:23 30° ESE
NOSS 0 Rocket 4.1 22:07:31 16° SW 22:12:32 72° WNW 22:18:44 10° NNE
Terra 3.4 22:10:34 18° SW 22:12:50 26° W 22:16:50 10° NW
Cosmos 1624 Rocket 4.1 22:09:55 10° NNW 22:15:09 66° ENE 22:16:57 40° SE
NOSS 3-4 (A) 3.8 22:08:33 10° NW 22:15:35 86° NE 22:19:47 30° SE
NOSS 3-4 (C) 3.8 22:08:40 10° NW 22:15:42 85° NE 22:19:55 30° SE
Cosmos 2237 Rocket 2.3 22:14:58 25° SSW 22:18:24 79° WNW 22:24:08 10° NNE
Genesis I 3.1 22:18:36 62° SSW 22:19:12 89° SE 22:23:07 10° NE
Cosmos 2344 3.5 22:16:02 22° SSW 22:21:06 72° ESE 22:29:00 10° NE
Cosmos 2219 Rocket 3.9 22:16:23 10° WSW 22:21:15 30° NW 22:26:11 10° N
Atlas Centaur 2 4.3 22:19:33 10° SW 22:21:21 15° SW 22:21:21 15° SW
DELTA 2 R/B (1) 3.8 22:24:39 10° WSW 22:29:57 46° S 22:30:03 46° S
Thor Agena Rocket 3.6 22:26:07 10° N 22:31:13 71° WNW 22:33:18 35° SW
Cosmos 2333 Rocket 4.3 22:26:54 10° WSW 22:31:34 25° NW 22:36:17 10° N
Cosmos 2221 4.5 22:34:32 10° NW 22:37:45 20° W 22:39:20 17° WSW
BREEZE-M DEB (TANK) 2.2 22:38:31 10° WNW 22:41:22 49° NW 22:41:22 49° NW
Iridium 2 4.4 22:38:24 10° NNW 22:42:01 42° W 22:42:26 40° WSW
Cosmos 1371 Rocket 4.1 22:37:39 10° NNW 22:42:53 65° WSW 22:44:15 47° SSW
ATLAS 2AS CENTAUR R/B 2.8 22:36:01 10° NW 22:43:32 73° WSW 22:46:25 38° SSE
EO 1 Del DPAF 3.9 22:40:39 10° N 22:44:16 46° WNW 22:44:59 40° WSW
Cosmos 1766 Rocket 3.4 22:44:24 64° SSE 22:45:00 79° E 22:49:25 10° N
Gbstr 26 Del rocket 4.3 22:49:28 24° E 22:49:28 24° E 22:51:28 10° ENE
Okean 3 Rocket 3.5 22:47:02 60° SSW 22:47:49 84° W 22:52:17 10° N
USA 215 4.3 22:43:35 10° NE 22:49:45 45° NNW 22:55:54 10° W
Cosmos 1328 Rocket 3.5 22:45:33 10° N 22:49:52 68° E 22:50:25 60° SE
Aureole 2 Rocket 3.2 22:47:02 10° NNW 22:48:59 40° NNW 22:48:59 40° NNW
Cosmos 1606 2.6 22:48:18 10° N 22:52:12 87° W 22:52:19 83° SSW
Cosmos 2218 Rocket 4.0 22:50:54 41° S 22:53:14 74° E 22:59:32 10° NNE
Cosmos 2278 Rocket 3.4 22:48:41 10° NW 22:53:29 29° WSW 22:54:59 26° SW
Cosmos 2297 3.7 22:49:31 10° NNW 22:55:18 87° ENE 22:57:11 45° SSE
Cosmos 2366 rocket 4.0 22:56:35 42° S 22:58:54 78° E 23:05:17 10° N
Cosmos 1420 Rocket 4.0 22:53:49 10° NNW 22:59:08 83° ENE 23:00:36 49° SSE
Cosmos 1633 3.6 23:01:11 35° ENE 23:01:11 35° ENE 23:04:11 10° NNE
Lacrosse 5 rocket 3.6 22:57:58 10° NNW 23:01:12 23° NNE 23:04:19 10° ENE
Cosmos 1943 Rocket 2.8 22:56:24 10° NNW 23:01:55 50° ENE 23:04:40 28° ESE
SL-16 R/B 2.1 23:00:46 44° SSW 23:02:42 89° ESE 23:08:26 10° NNE
Cosmos 2056 Rocket 4.1 23:01:35 10° NNW 23:06:46 47° WSW 23:07:58 40° SW
Cosmos 1959 Rocket 4.4 23:06:20 43° S 23:08:32 88° W 23:14:46 10° N
YAOGAN 11 4.3 23:09:09 51° ESE 23:09:56 61° ENE 23:14:18 10° N
Cosmos 1743 Rocket 4.0 23:12:36 45° ESE 23:12:57 46° E 23:17:07 10° NNE
Cosmos 332 Rocket 3.7 23:15:40 10° NNW 23:20:29 82° ENE 23:21:28 57° SSE
Cosmos 1048 Rocket 4.3 23:19:33 46° SE 23:20:32 53° ESE 23:25:40 10° NNE
USA 267 3.9 23:21:24 33° SSW 23:22:23 35° SW 23:28:19 10° WNW
Meteor 2-3 Rocket 3.7 23:21:02 47° SSW 23:22:46 83° WNW 23:28:30 10° N
Helios 1A 2.8 23:24:53 71° SW 23:25:10 74° WSW 23:29:21 10° NNW
Cosmos 405 3.2 23:25:51 10° N 23:29:08 67° NE 23:29:08 67° NE
Meteor 1-26 Rocket 4.4 23:27:33 10° NNW 23:33:32 69° W 23:35:20 45° SSW
Cosmos 1452 Rocket 3.4 23:28:39 10° NNW 23:33:55 75° WSW 23:35:06 53° S
Cosmos 1340 3.4 23:34:23 42° W 23:34:33 43° WNW 23:38:10 10° N
CZ-4C R/B 3.6 23:28:04 10° NNW 23:35:00 54° NE 23:43:00 10° ESE
ALOS 2 3.8 23:35:27 27° WSW 23:35:46 28° W 23:39:33 10° NW
COSMOS 2455 2.8 23:29:51 10° NNW 23:35:57 88° ENE 23:38:24 38° SSE
PSLV R/B 3.6 23:32:02 10° NNE 23:36:13 58° E 23:36:34 56° SE
Cosmos 1408 Rocket 4.0 23:35:56 45° WSW 23:36:38 50° WNW 23:40:57 10° N
SL-16 R/B 4.3 23:32:34 10° ESE 23:37:28 25° ENE 23:42:24 10° N
Cosmos 1603 4.1 23:36:25 41° SE 23:37:43 49° ESE 23:43:11 10° NE
Cosmos 1933 4.3 23:34:31 10° NNW 23:38:09 34° W 23:38:13 34° W
Cosmos 1151 Rocket 4.0 23:35:49 10° NNW 23:39:42 33° W 23:40:03 32° W
Cosmos 1500 Rocket 3.4 23:44:49 66° SSW 23:45:24 83° W 23:49:49 10° N
Cosmos 44 4.3 23:43:38 23° W 23:45:42 36° NW 23:49:50 10° NNE
Cosmos 1727 Rocket 4.1 23:39:46 10° NNW 23:45:56 64° W 23:48:04 41° SSW
Cosmos 2369 Rocket 2.2 23:40:53 10° NNW 23:46:31 75° ENE 23:48:49 37° SE
Resurs 1-4 Rocket 4.0 23:43:02 10° NE 23:46:34 18° E 23:48:44 14° ESE
ISS -1.3 23:51:00 15° E 23:51:00 15° E 23:51:48 10° E
Cosmos 371 Rocket 4.0 23:45:33 10° NW 23:50:02 38° WSW 23:50:25 37° WSW
SeaSat 1 3.8 23:46:30 10° NE 23:50:34 25° ESE 23:51:20 24° ESE
Cosmos 1000 Rocket 4.5 23:46:30 10° N 23:52:52 83° E 23:55:26 39° SSE
Helios 1B rocket 2.3 23:50:52 10° NNE 23:55:00 77° ESE 23:55:23 69° SSE
